DLH8WE EDDH-EDDF

Flight info

Callsign DLH8WE
Flight time N/A
Altitude 34000
Route AMLUH2G AMLUH M852 DENIX DCT RIMET T157 KERAX KERAX5A
Aircraft A320/M-SDE3FGHIRWY/LB1

Departure

Time 2026-04-24 14:38
Airport Hamburg Helmut Schmidt Airport (EDDH)

Arrival

Time N/A
Airport Frankfurt Main Airport (EDDF)
Time Latitude Longitude Altitude Speed Heading
2026-04-24 14:15 53.63612 10.00236 52 ft 0 kts 320°
2026-04-24 14:17 53.63245 10.00357 49 ft 0 kts 86°
2026-04-24 14:30 53.63241 10.00268 43 ft 6 kts 86°
2026-04-24 14:30 53.63243 10.00201 49 ft 6 kts 126°
2026-04-24 14:30 53.63268 10.00172 47 ft 0 kts 181°
2026-04-24 14:32 53.63272 10.00172 48 ft 0 kts 181°
2026-04-24 14:33 53.63277 10.00173 48 ft 0 kts 181°
2026-04-24 14:33 53.63278 10.00173 48 ft 0 kts 181°
2026-04-24 14:34 53.63267 10.00173 47 ft 3 kts 175°
2026-04-24 14:34 53.63213 10.00179 48 ft 12 kts 176°
2026-04-24 14:34 53.63134 10.00189 48 ft 11 kts 176°
2026-04-24 14:34 53.63064 10.00178 46 ft 9 kts 204°
2026-04-24 14:35 53.63004 10.00115 48 ft 10 kts 213°
2026-04-24 14:35 53.62944 10.00046 47 ft 11 kts 220°
2026-04-24 14:35 53.62915 9.99975 46 ft 4 kts 242°
2026-04-24 14:35 53.62898 9.99919 48 ft 8 kts 243°
2026-04-24 14:36 53.62864 9.99808 45 ft 7 kts 243°
2026-04-24 14:36 53.62874 9.99737 43 ft 7 kts 329°
2026-04-24 14:36 53.62885 9.99728 45 ft 0 kts 332°
2026-04-24 14:37 53.63033 9.99601 44 ft 60 kts 333°
2026-04-24 14:37 53.63604 9.99110 46 ft 122 kts 333°
2026-04-24 14:37 53.64455 9.98384 377 ft 142 kts 330°
2026-04-24 14:38 53.65349 9.97674 1184 ft 142 kts 329°
2026-04-24 14:38 53.66266 9.96882 1773 ft 157 kts 328°
2026-04-24 14:38 53.67304 9.95970 2167 ft 179 kts 329°
2026-04-24 14:38 53.68492 9.94962 2620 ft 201 kts 338°
2026-04-24 14:39 53.69889 9.94659 3506 ft 205 kts 357°
2026-04-24 14:39 53.71321 9.94664 4392 ft 207 kts 359°
2026-04-24 14:39 53.72704 9.95320 5262 ft 216 kts 33°
2026-04-24 14:39 53.73563 9.97453 6126 ft 229 kts 65°
2026-04-24 14:40 53.74012 10.00050 6993 ft 232 kts 70°
2026-04-24 14:40 53.74105 10.02831 7767 ft 246 kts 93°
2026-04-24 14:40 53.73568 10.05693 8299 ft 272 kts 115°
2026-04-24 14:40 53.72253 10.08192 8688 ft 301 kts 146°
2026-04-24 14:41 53.70294 10.09637 9355 ft 313 kts 160°
2026-04-24 14:41 53.68234 10.10918 10202 ft 318 kts 160°
2026-04-24 14:41 53.66097 10.12271 10619 ft 339 kts 160°
2026-04-24 14:41 53.63817 10.13728 10912 ft 362 kts 159°
2026-04-24 14:42 53.62239 10.14734 11275 ft 370 kts 159°
2026-04-24 14:42 53.58988 10.16806 12261 ft 376 kts 159°
2026-04-24 14:42 53.56537 10.18366 13055 ft 379 kts 159°
2026-04-24 14:42 53.54057 10.19941 13847 ft 382 kts 160°
2026-04-24 14:43 53.51564 10.21521 14547 ft 385 kts 160°
2026-04-24 14:43 53.49045 10.23111 15234 ft 388 kts 160°
2026-04-24 14:43 53.46506 10.24705 15920 ft 391 kts 160°
2026-04-24 14:43 53.43948 10.26308 16599 ft 394 kts 161°
2026-04-24 14:44 53.42243 10.27379 17051 ft 396 kts 161°
2026-04-24 14:44 53.39652 10.29009 17718 ft 399 kts 161°
2026-04-24 14:44 53.37043 10.30646 18380 ft 402 kts 161°
2026-04-24 14:44 53.34417 10.32291 18933 ft 406 kts 161°
2026-04-24 14:45 53.31755 10.33958 19476 ft 409 kts 161°
2026-04-24 14:45 53.29081 10.35632 20024 ft 412 kts 162°
2026-04-24 14:45 53.26389 10.37311 20566 ft 415 kts 162°
2026-04-24 14:45 53.23677 10.38998 21098 ft 418 kts 162°
2026-04-24 14:46 53.20941 10.40696 21628 ft 421 kts 162°
2026-04-24 14:46 53.18180 10.42407 22144 ft 424 kts 162°
2026-04-24 14:46 53.15390 10.44048 22643 ft 425 kts 167°
2026-04-24 14:46 53.12499 10.45036 23136 ft 424 kts 177°